Nacogdoches, TX

1:59 PM CDT on May 28, 2017 (GMT -0500)
Mangham Regional

Weather History for KOCH - October, 2012

Change the Weather History Date:

Sunday, October 14, 2012

  Actual Average Record
Temperature  
Mean Temperature 72 °F -  
Max Temperature 84 °F 75 °F 93 °F (2015)
Min Temperature 57 °F 53 °F 46 °F (2000)
Cooling Degree Days 6    
Growing Degree Days 22 (Base 50)    
Moisture  
Dew Point 66 °F    
Average Humidity 75    
Maximum Humidity 88    
Minimum Humidity 57    
Precipitation  
Precipitation 0.00 in - - ()
Sea Level Pressure  
Sea Level Pressure 30.00 in    
Wind  
Wind Speed 10 mph (WSW)    
Max Wind Speed 15 mph    
Max Gust Speed 24 mph    
Visibility 10 miles    
Events Thunderstorm    
Averages and records for this station are not official NWS values.
T = Trace of Precipitation, MM = Missing Value Source: NWS Daily Summary

Daily Weather History Graph

Daily Weather History Graph

Search for Another Location

Airport or City:

Trip Planner

Search our weather history database for the weather conditions in past years. The results will help you decide how hot, cold, wet, or windy it might be!

Date:

Astronomy

Oct. 14, 2012 Rise Set
Actual Time 7:21 AM CDT 6:47 PM CDT
Civil Twilight 6:57 AM CDT 7:11 PM CDT
Nautical Twilight 6:28 AM CDT 7:40 PM CDT
Astronomical Twilight 6:00 AM CDT 8:08 PM CDT
Moon 6:22 AM CDT (10/14) 6:08 PM CDT (10/14)
Length of Visible Light 12h 14m
Length of Day
11h 25m
Waning Crescent, 1% of the Moon is Illuminated
Oct 14
Waning Crescent
Oct 15
New
Oct 21
First Quarter
Oct 29
Full
Nov 6
Last Quarter

Hourly Weather History & Observations

Time (CDT) Temp. Heat Index Dew Point Humidity Pressure Visibility Wind Dir Wind Speed Gust Speed Precip Events Conditions
12:15 AM 75.2 °F - 66.2 °F 73% 29.95 in 10.0 mi South 13.8 mph 20.7 mph N/A   Partly Cloudy
12:35 AM 75.2 °F - 68.0 °F 78% 29.95 in 10.0 mi South 12.7 mph 24.2 mph N/A   Scattered Clouds
12:55 AM 75.2 °F - 68.0 °F 78% 29.95 in 10.0 mi South 13.8 mph 18.4 mph N/A   Mostly Cloudy
1:15 AM 75.2 °F - 68.0 °F 78% 29.95 in 10.0 mi South 13.8 mph 21.9 mph N/A   Partly Cloudy
1:35 AM 75.2 °F - 68.0 °F 78% 29.94 in 10.0 mi South 13.8 mph 18.4 mph N/A   Scattered Clouds
1:55 AM 75.2 °F - 68.0 °F 78% 29.95 in 10.0 mi South 12.7 mph 20.7 mph N/A   Mostly Cloudy
2:35 AM 75.2 °F - 69.8 °F 83% 29.96 in 10.0 mi SSW 12.7 mph 19.6 mph N/A   Overcast
2:55 AM 75.2 °F - 69.8 °F 83% 29.96 in 10.0 mi SSW 10.4 mph - N/A   Overcast
3:15 AM 75.2 °F - 69.8 °F 83% 29.95 in 10.0 mi SSW 10.4 mph - N/A   Overcast
3:35 AM 75.2 °F - 69.8 °F 83% 29.96 in 10.0 mi SSW 10.4 mph - N/A   Overcast
3:55 AM 75.2 °F - 69.8 °F 83% 29.95 in 10.0 mi SSW 10.4 mph - N/A   Mostly Cloudy
4:15 AM 75.2 °F - 69.8 °F 83% 29.95 in 10.0 mi SSW 10.4 mph - N/A   Mostly Cloudy
4:35 AM 75.2 °F - 69.8 °F 83% 29.95 in 10.0 mi SSW 8.1 mph - N/A   Mostly Cloudy
4:55 AM 75.2 °F - 69.8 °F 83% 29.97 in 10.0 mi SSW 10.4 mph - N/A   Overcast
5:15 AM 75.2 °F - 69.8 °F 83% 29.97 in 10.0 mi SSW 11.5 mph - N/A   Mostly Cloudy
5:35 AM 75.2 °F - 69.8 °F 83% 29.97 in 10.0 mi SSW 11.5 mph 17.3 mph N/A Thunderstorm Thunderstorm
5:55 AM 75.2 °F - 69.8 °F 83% 29.98 in 10.0 mi SSW 12.7 mph - N/A   Overcast
6:15 AM 75.2 °F - 69.8 °F 83% 30.00 in 10.0 mi SW 5.8 mph - N/A   Overcast
6:35 AM 75.2 °F - 69.8 °F 83% 30.00 in 10.0 mi SW 6.9 mph - N/A   Overcast
6:55 AM 73.4 °F - 69.8 °F 88% 30.01 in 10.0 mi West 5.8 mph - N/A   Overcast
7:15 AM 73.4 °F - 69.8 °F 88% 30.01 in 9.0 mi SSW 6.9 mph - N/A   Overcast
7:35 AM 73.4 °F - 69.8 °F 88% 29.99 in 9.0 mi South 4.6 mph - N/A   Mostly Cloudy
7:55 AM 73.4 °F - 69.8 °F 88% 29.98 in 8.0 mi SSE 6.9 mph - N/A   Mostly Cloudy
8:15 AM 73.4 °F - 69.8 °F 88% 30.02 in 7.0 mi West 5.8 mph - N/A   Overcast
8:35 AM 73.4 °F - 69.8 °F 88% 30.02 in 10.0 mi SW 6.9 mph - N/A   Mostly Cloudy
8:55 AM 73.4 °F - 69.8 °F 88% 30.03 in 10.0 mi SW 15.0 mph - N/A   Mostly Cloudy
9:15 AM 73.4 °F - 68.0 °F 83% 30.04 in 10.0 mi WSW 13.8 mph 20.7 mph N/A   Scattered Clouds
9:35 AM 73.4 °F - 68.0 °F 83% 30.04 in 10.0 mi SW 11.5 mph 20.7 mph N/A   Partly Cloudy
9:55 AM 73.4 °F - 68.0 °F 83% 30.05 in 10.0 mi SW 9.2 mph - N/A   Clear
10:15 AM 73.4 °F - 68.0 °F 83% 30.05 in 10.0 mi SW 6.9 mph - N/A   Partly Cloudy
10:35 AM 73.4 °F - 68.0 °F 83% 30.05 in 10.0 mi SW 11.5 mph - N/A   Scattered Clouds
10:55 AM 75.2 °F - 68.0 °F 78% 30.06 in 10.0 mi SSW 9.2 mph - N/A   Scattered Clouds
11:15 AM 75.2 °F - 68.0 °F 78% 30.06 in 10.0 mi SW 10.4 mph - N/A   Partly Cloudy
11:35 AM 77.0 °F - 68.0 °F 74% 30.06 in 10.0 mi WSW 12.7 mph 17.3 mph N/A   Scattered Clouds
11:55 AM 78.8 °F - 69.8 °F 74% 30.06 in 10.0 mi West 9.2 mph 18.4 mph N/A   Mostly Cloudy
12:15 PM 80.6 °F 83.9 °F 69.8 °F 70% 30.05 in 10.0 mi SW 11.5 mph - N/A   Mostly Cloudy
12:35 PM 82.4 °F 86.3 °F 69.8 °F 66% 30.04 in 10.0 mi WSW 15.0 mph - N/A   Mostly Cloudy
12:55 PM 82.4 °F 86.3 °F 69.8 °F 66% 30.03 in 10.0 mi WSW 12.7 mph 21.9 mph N/A   Mostly Cloudy
1:15 PM 80.6 °F 83.9 °F 69.8 °F 70% 30.02 in 10.0 mi West 9.2 mph - N/A   Mostly Cloudy
1:35 PM 80.6 °F 83.9 °F 69.8 °F 70% 30.02 in 10.0 mi WNW 11.5 mph - N/A   Overcast
1:55 PM 80.6 °F 83.9 °F 69.8 °F 70% 30.01 in 10.0 mi WNW 8.1 mph - N/A   Mostly Cloudy
2:15 PM 82.4 °F 86.3 °F 69.8 °F 66% 30.00 in 10.0 mi West 10.4 mph - N/A   Mostly Cloudy
2:35 PM 82.4 °F 86.3 °F 69.8 °F 66% 29.99 in 10.0 mi WNW 10.4 mph - N/A   Mostly Cloudy
2:55 PM 80.6 °F 83.9 °F 69.8 °F 70% 29.99 in 10.0 mi WNW 9.2 mph 16.1 mph N/A   Mostly Cloudy
3:15 PM 82.4 °F 86.3 °F 69.8 °F 66% 29.99 in 10.0 mi WNW 10.4 mph - N/A   Mostly Cloudy
3:35 PM 82.4 °F 86.3 °F 69.8 °F 66% 29.99 in 10.0 mi West 9.2 mph - N/A   Partly Cloudy
3:55 PM 84.2 °F 88.4 °F 69.8 °F 62% 29.99 in 10.0 mi WNW 6.9 mph - N/A   Clear
4:15 PM 82.4 °F 86.3 °F 69.8 °F 66% 29.99 in 10.0 mi West 8.1 mph - N/A   Partly Cloudy
4:35 PM 84.2 °F 88.4 °F 69.8 °F 62% 29.98 in 10.0 mi West 9.2 mph - N/A   Partly Cloudy
4:55 PM 84.2 °F 88.4 °F 69.8 °F 62% 29.98 in 10.0 mi West 6.9 mph - N/A   Partly Cloudy
5:15 PM 82.4 °F 84.6 °F 66.2 °F 58% 29.97 in 10.0 mi West 6.9 mph - N/A   Clear
5:35 PM 82.4 °F 84.6 °F 66.2 °F 58% 29.98 in 10.0 mi WNW 9.2 mph - N/A   Clear
5:55 PM 82.4 °F 84.6 °F 66.2 °F 58% 29.98 in 10.0 mi NNW 10.4 mph - N/A   Clear
6:15 PM 80.6 °F 82.3 °F 64.4 °F 58% 29.99 in 10.0 mi NNW 9.2 mph - N/A   Clear
6:35 PM 78.8 °F - 62.6 °F 57% 29.99 in 10.0 mi North 9.2 mph - N/A   Clear
6:55 PM 75.2 °F - 60.8 °F 61% 29.99 in 10.0 mi North 5.8 mph - N/A   Clear
7:15 PM 73.4 °F - 59.0 °F 61% 29.99 in 10.0 mi North 5.8 mph - N/A   Clear
7:35 PM 71.6 °F - 59.0 °F 64% 30.00 in 10.0 mi North 4.6 mph - N/A   Clear
7:55 PM 69.8 °F - 57.2 °F 64% 30.00 in 10.0 mi North 4.6 mph - N/A   Clear
8:15 PM 69.8 °F - 57.2 °F 64% 30.01 in 10.0 mi North 3.5 mph - N/A   Clear
8:35 PM 66.2 °F - 57.2 °F 73% 30.02 in 10.0 mi Calm Calm - N/A   Clear
8:55 PM 66.2 °F - 57.2 °F 73% 30.03 in 10.0 mi NNE 3.5 mph - N/A   Clear
9:15 PM 64.4 °F - 55.4 °F 73% 30.03 in 10.0 mi Calm Calm - N/A   Clear
9:35 PM 62.6 °F - 57.2 °F 82% 30.04 in 10.0 mi Calm Calm - N/A   Clear
9:55 PM 62.6 °F - 55.4 °F 77% 30.05 in 10.0 mi Calm Calm - N/A   Clear
10:15 PM 60.8 °F - 55.4 °F 82% 30.05 in 10.0 mi Calm Calm - N/A   Clear
10:35 PM 60.8 °F - 55.4 °F 82% 30.06 in 10.0 mi Calm Calm - N/A   Clear
10:55 PM 60.8 °F - 55.4 °F 82% 30.06 in 10.0 mi Calm Calm - N/A   Clear
11:15 PM 59.0 °F - 55.4 °F 88% 30.06 in 10.0 mi Calm Calm - N/A   Clear
11:35 PM 59.0 °F - 53.6 °F 82% 30.06 in 10.0 mi Calm Calm - N/A   Clear
11:55 PM 57.2 °F - 53.6 °F 88% 30.06 in 10.0 mi Calm Calm - N/A   Clear